[[{"header":{"parameterUnit":"m.s-1","parameterCategory":1,"la1":30.2991,"la2":30.254,"lo1":-89.0895,"lo2":-89.0444,"dy":0.0017,"dx":0.0017,"nx":28,"ny":28,"refTime":"2026-01-09T09:00:00:Z","depth":0,"parameterNumber":2,"parameterNumberName":"U-component_of_WINDS"},"data":[0,0,0,0,0,0,0,0,0,0,0,0,0,0,0,0,0,0,0,0,0,0,0,0,0,0,0,0,0,0,0,0,0,0,0,0,0,0,0,0,0,0,0,0,0,0,0,0,0,0,0,0,0,0,0,0,0,0,-1.2848,-1.2848,0,-1.2827,-1.2827,-1.2827,-1.2813,-1.2813,-1.2813,-1.2813,-1.2793,-1.2793,-1.2792,0,0,0,0,0,0,0,0,0,0,0,0,0,-1.2876,-1.2876,-1.2848,-1.2848,-1.2847,-1.2827,-1.2827,-1.2827,-1.2813,-1.2813,-1.2813,-1.2813,-1.2793,-1.2793,-1.2792,0,0,0,0,0,0,0,0,0,0,0,0,0,-1.2861,-1.2876,-1.2848,-1.2838,-1.2837,-1.2827,-1.2827,-1.2827,-1.2813,-1.2813,-1.2813,-1.2813,-1.2794,-1.2793,-1.2792,-1.2791,0,0,-1.279,-1.279,0,0,0,0,0,0,0,0,-1.2862,-1.286,-1.284,-1.2839,-1.2838,-1.2823,-1.283,-1.2815,-1.2813,-1.2822,-1.2813,-1.2813,-1.2803,-1.2802,-1.2798,-1.279,-1.2789,-1.279,-1.279,-1.2789,-1.2789,0,0,0,0,0,0,0,-1.2863,-1.2861,-1.284,-1.284,-1.2838,-1.2835,-1.2833,-1.2827,-1.2814,-1.2822,-1.2821,-1.2818,-1.2803,-1.2799,-1.2798,-1.2789,-1.279,-1.279,-1.2789,-1.2789,-1.2777,-1.2777,0,0,0,0,0,0,-1.2865,-1.2862,-1.284,-1.2839,-1.285,-1.2835,-1.2832,-1.2828,-1.2814,-1.2812,-1.2818,-1.2818,-1.28,-1.2798,-1.2797,-1.2794,-1.2789,-1.2789,-1.2788,-1.2777,-1.2777,-1.2777,0,0,0,0,0,0,-1.2866,-1.2864,-1.2841,-1.285,-1.2847,-1.2834,-1.2829,-1.2827,-1.2824,-1.2811,-1.2809,-1.2817,-1.28,-1.2798,-1.2792,-1.2793,-1.2788,-1.2788,-1.2777,-1.2777,-1.2777,-1.2787,0,0,0,0,0,0,-1.2867,-1.2864,-1.2863,-1.285,-1.2846,-1.2836,-1.283,-1.2827,-1.2822,-1.2821,-1.2809,-1.2807,-1.28,-1.2793,-1.2791,-1.2792,-1.2787,-1.2777,-1.2777,-1.2777,-1.2787,-1.2788,-1.2789,0,0,0,0,0,-1.2868,-1.2867,-1.2863,-1.286,-1.2845,-1.2837,-1.2835,-1.2825,-1.2822,-1.2821,-1.2814,-1.2808,-1.2793,-1.2793,-1.2791,-1.2791,-1.2777,-1.2777,-1.2777,-1.2787,-1.2788,-1.2789,0,0,0,0,0,0,-1.2881,-1.2865,-1.286,-1.2855,-1.2847,-1.2834,-1.2833,-1.2827,-1.282,-1.2819,-1.2808,-1.2806,-1.2801,-1.2795,-1.2795,-1.2788,-1.2784,-1.2784,-1.2792,-1.2793,-1.2794,-1.2795,-1.2787,0,0,0,0,0,-1.2883,-1.2877,-1.2864,-1.2861,-1.2857,-1.2846,-1.2841,-1.2835,-1.2826,-1.2823,-1.2815,-1.2807,-1.2801,-1.2797,-1.279,-1.2786,-1.2783,-1.2785,-1.2786,-1.2787,-1.2787,-1.2784,-1.2784,-1.2778,-1.2778,-1.2778,0,0,-1.2888,-1.2878,-1.2875,-1.2863,-1.2856,-1.285,-1.2843,-1.2837,-1.2833,-1.2822,-1.2816,-1.281,-1.28,-1.2795,-1.2793,-1.2791,-1.2788,-1.2787,-1.2788,-1.2787,-1.2784,-1.2785,-1.2785,-1.2778,-1.2778,-1.2778,0,0,-1.2893,-1.2885,-1.2881,-1.2874,-1.2864,-1.2856,-1.2855,-1.2843,-1.2838,-1.2832,-1.2824,-1.2818,-1.2808,-1.2801,-1.2796,-1.2799,-1.2793,-1.2797,-1.2801,-1.2799,-1.2799,-1.2799,-1.28,-1.28,-1.2797,-1.2797,-1.2797,0,-1.29,-1.289,-1.288,-1.2875,-1.2869,-1.2859,-1.2855,-1.2849,-1.2837,-1.2834,-1.2831,-1.2817,-1.281,-1.2803,-1.2804,-1.28,-1.2799,-1.2798,-1.28,-1.28,-1.28,-1.28,-1.2801,-1.2797,-1.2797,-1.2797,-1.2797,0,-1.2899,-1.2893,-1.2891,-1.2879,-1.2874,-1.2869,-1.2858,-1.2854,-1.2848,-1.2841,-1.2834,-1.2825,-1.2817,-1.2815,-1.2809,-1.2807,-1.2806,-1.2802,-1.2797,-1.2801,-1.2801,-1.2801,-1.2798,-1.2798,-1.2798,-1.2798,0,0,-1.2912,-1.2894,-1.2893,-1.2887,-1.2875,-1.287,-1.2865,-1.2855,-1.2852,-1.2844,-1.2839,-1.283,-1.2826,-1.2821,-1.2814,-1.2812,-1.2814,-1.2808,-1.2808,-1.2809,-1.281,-1.2813,-1.2813,-1.281,-1.281,-1.281,-1.2811,0,-1.2915,-1.2904,-1.2895,-1.2888,-1.2882,-1.2872,-1.2868,-1.2859,-1.2853,-1.2847,-1.2839,-1.2833,-1.2828,-1.2825,-1.2822,-1.2814,-1.2814,-1.2814,-1.2806,-1.2805,-1.2808,-1.2813,-1.2816,-1.2818,-1.2811,-1.2811,-1.2811,0,-1.2917,-1.2908,-1.2901,-1.2888,-1.2885,-1.2881,-1.2872,-1.2866,-1.2857,-1.2852,-1.2846,-1.2839,-1.2833,-1.283,-1.2821,-1.2822,-1.2818,-1.2813,-1.2813,-1.2812,-1.2808,-1.2812,-1.2818,-1.2818,-1.2811,-1.2811,-1.2811,0,-1.2926,-1.2913,-1.2906,-1.2902,-1.2887,-1.2884,-1.2878,-1.2869,-1.2863,-1.2856,-1.2852,-1.2844,-1.2839,-1.2833,-1.2824,-1.2823,-1.2817,-1.2813,-1.2813,-1.2813,-1.2812,-1.2812,-1.2817,-1.281,-1.281,-1.281,-1.281,0,-1.293,-1.2925,-1.291,-1.2906,-1.2901,-1.289,-1.2885,-1.2878,-1.287,-1.2864,-1.2856,-1.2851,-1.284,-1.2834,-1.2827,-1.2821,-1.2819,-1.2815,-1.2813,-1.2816,-1.2816,-1.2813,-1.2812,-1.281,-1.281,-1.281,-1.281,0,-1.2939,-1.2929,-1.2921,-1.2907,-1.2904,-1.29,-1.2889,-1.2885,-1.2877,-1.2871,-1.2868,-1.2857,-1.2849,-1.284,-1.283,-1.2825,-1.282,-1.2817,-1.2823,-1.2821,-1.2821,-1.2821,-1.2824,-1.2824,-1.2818,-1.2818,-1.2818,0,-1.2941,-1.2938,-1.2923,-1.2919,-1.2913,-1.2906,-1.29,-1.289,-1.2885,-1.2873,-1.2871,-1.2862,-1.2855,-1.2843,-1.2834,-1.2826,-1.2823,-1.2825,-1.2822,-1.2824,-1.2823,-1.2823,-1.2822,-1.2825,-1.2825,-1.2825,-1.2826,0,-1.2947,-1.2942,-1.2934,-1.2925,-1.2918,-1.2911,-1.2902,-1.2899,-1.2887,-1.2882,-1.2874,-1.2868,-1.2857,-1.2849,-1.2839,-1.2834,-1.2827,-1.2827,-1.2826,-1.2828,-1.2831,-1.2829,-1.2824,-1.2826,-1.2826,-1.2826,-1.2826,-1.2826,-1.2953,-1.2949,-1.2938,-1.2929,-1.2922,-1.2914,-1.291,-1.2901,-1.2894,-1.2884,-1.2878,-1.287,-1.2861,-1.2848,-1.2842,-1.2836,-1.2834,-1.2833,-1.2833,-1.2832,-1.2833,-1.2832,-1.2834,-1.2834,-1.2834,-1.2834,-1.2834,0,-1.2957,-1.295,-1.2942,-1.2931,-1.2924,-1.2919,-1.2909,-1.2904,-1.2897,-1.2888,-1.2881,-1.2872,-1.2864,-1.2854,-1.2845,-1.2842,-1.2839,-1.284,-1.284,-1.2839,-1.2836,-1.2837,-1.2842,-1.2842,-1.2842,-1.2842,-1.2842,-1.2842,-1.2959,-1.2952,-1.2945,-1.2934,-1.2927,-1.2918,-1.2913,-1.2906,-1.2899,-1.2889,-1.2882,-1.2876,-1.2867,-1.2857,-1.2849,-1.2847,-1.2844,-1.2846,-1.2842,-1.284,-1.2839,-1.2838,-1.2839,-1.2845,-1.2845,-1.2846,-1.2846,-1.2846]},{"header":{"parameterUnit":"m.s-1","parameterCategory":1,"la1":30.2991,"la2":30.254,"lo1":-89.0895,"lo2":-89.0444,"dy":0.0017,"dx":0.0017,"nx":28,"ny":28,"refTime":"2026-01-09T09:00:00:Z","depth":0,"parameterNumber":3,"parameterNumberName":"V-component_of_WINDS"},"data":[0,0,0,0,0,0,0,0,0,0,0,0,0,0,0,0,0,0,0,0,0,0,0,0,0,0,0,0,0,0,0,0,0,0,0,0,0,0,0,0,0,0,0,0,0,0,0,0,0,0,0,0,0,0,0,0,0,0,3.4349,3.4349,0,3.439,3.439,3.439,3.4379,3.4378,3.4378,3.4377,3.4414,3.4416,3.4418,0,0,0,0,0,0,0,0,0,0,0,0,0,3.4257,3.4259,3.4349,3.4349,3.435,3.439,3.439,3.4391,3.4379,3.4378,3.4377,3.4376,3.4414,3.4416,3.4418,0,0,0,0,0,0,0,0,0,0,0,0,0,3.4297,3.426,3.4349,3.4349,3.4349,3.4389,3.439,3.4391,3.4379,3.4378,3.4377,3.4376,3.4413,3.4416,3.4418,3.4459,0,0,3.4426,3.4427,0,0,0,0,0,0,0,0,3.4295,3.4301,3.4348,3.4349,3.435,3.4378,3.4372,3.4413,3.438,3.4368,3.4377,3.4375,3.4403,3.4406,3.4417,3.4461,3.4462,3.4427,3.4428,3.4429,3.443,0,0,0,0,0,0,0,3.4292,3.4299,3.4365,3.4349,3.435,3.4346,3.435,3.4379,3.4392,3.4369,3.4368,3.4373,3.4403,3.4414,3.4417,3.4463,3.4426,3.4429,3.443,3.4431,3.4544,3.4545,0,0,0,0,0,0,3.429,3.4297,3.4363,3.4366,3.4319,3.4349,3.4353,3.437,3.4391,3.4394,3.4374,3.4373,3.441,3.4414,3.4419,3.447,3.4429,3.4432,3.4433,3.4543,3.4544,3.4546,0,0,0,0,0,0,3.4288,3.4296,3.4362,3.4331,3.4339,3.4352,3.437,3.4372,3.4383,3.4396,3.4397,3.4384,3.4409,3.4415,3.445,3.4471,3.4433,3.4435,3.4541,3.4543,3.4545,3.4571,0,0,0,0,0,0,3.4285,3.4295,3.4312,3.4332,3.4341,3.4393,3.4372,3.4373,3.4388,3.4386,3.4405,3.4407,3.4409,3.4446,3.4452,3.4474,3.4437,3.4539,3.4542,3.4544,3.4568,3.4573,3.4578,0,0,0,0,0,3.4282,3.4316,3.4313,3.4321,3.4362,3.4395,3.44,3.4403,3.4389,3.4406,3.4414,3.4406,3.4467,3.445,3.4457,3.4479,3.4538,3.4541,3.4544,3.4566,3.4572,3.4578,0,0,0,0,0,0,3.4296,3.4318,3.4315,3.4357,3.4374,3.4393,3.4413,3.4409,3.443,3.4427,3.4428,3.4433,3.4469,3.4477,3.4457,3.452,3.45,3.4505,3.4514,3.4521,3.4525,3.4524,3.444,0,0,0,0,0,3.4304,3.433,3.4348,3.4382,3.4392,3.4401,3.4415,3.4416,3.4434,3.4441,3.4451,3.4468,3.4491,3.4506,3.4527,3.4568,3.4573,3.4587,3.4592,3.4596,3.4601,3.4625,3.4632,3.4556,3.4556,3.4556,0,0,3.4321,3.4336,3.4352,3.4386,3.4399,3.4426,3.4407,3.4435,3.4455,3.4444,3.4479,3.4487,3.4505,3.4544,3.4562,3.4552,3.4623,3.46,3.4604,3.4606,3.4629,3.4636,3.4643,3.4559,3.4558,3.4558,0,0,3.4366,3.4379,3.4411,3.4426,3.4447,3.4453,3.4461,3.4481,3.4487,3.4521,3.4515,3.4537,3.4576,3.459,3.4602,3.4652,3.4646,3.4659,3.4686,3.4709,3.4715,3.4721,3.4741,3.4748,3.4663,3.4663,3.4663,0,3.4383,3.4424,3.4427,3.4457,3.4472,3.4466,3.4498,3.4511,3.4538,3.4548,3.4537,3.4587,3.4598,3.4641,3.4654,3.4663,3.4672,3.4658,3.4714,3.472,3.4725,3.4744,3.4751,3.4665,3.4665,3.4665,3.4664,0,3.4446,3.4474,3.4497,3.4526,3.4543,3.4573,3.4581,3.4598,3.4597,3.4604,3.464,3.4653,3.4679,3.4688,3.4687,3.4731,3.4725,3.4714,3.4694,3.4734,3.4752,3.4759,3.4667,3.4667,3.4666,3.4666,0,0,3.4502,3.4533,3.4541,3.4555,3.4578,3.46,3.4629,3.4656,3.4671,3.4689,3.4715,3.4748,3.4739,3.4753,3.4753,3.4773,3.4815,3.476,3.476,3.4771,3.4867,3.4877,3.4885,3.481,3.4811,3.4812,3.4866,0,3.455,3.4606,3.461,3.4659,3.4686,3.468,3.4706,3.4722,3.473,3.4752,3.4759,3.4784,3.4769,3.4777,3.4797,3.4806,3.4834,3.4801,3.4834,3.4835,3.4833,3.4894,3.4904,3.4954,3.4873,3.4874,3.4875,0,3.4614,3.4638,3.4691,3.4712,3.4723,3.4747,3.4772,3.4794,3.4812,3.4816,3.4832,3.4829,3.486,3.4837,3.4879,3.4857,3.487,3.4876,3.4878,3.4883,3.4859,3.4903,3.497,3.4979,3.4885,3.4884,3.4884,0,3.4653,3.4696,3.4735,3.4746,3.4771,3.4788,3.4799,3.4817,3.4833,3.4854,3.4864,3.4888,3.4901,3.4919,3.4923,3.4906,3.4965,3.4943,3.497,3.497,3.4984,3.4984,3.5057,3.4989,3.4989,3.4989,3.4988,0,3.4708,3.4741,3.4753,3.4776,3.4813,3.4816,3.4852,3.4862,3.4877,3.4902,3.4896,3.492,3.4922,3.4945,3.4948,3.4983,3.4988,3.4992,3.4993,3.4995,3.4994,3.5005,3.5002,3.4991,3.499,3.499,3.4989,0,3.4758,3.4767,3.4808,3.4829,3.4835,3.4862,3.4879,3.4901,3.4908,3.4939,3.4946,3.4956,3.4984,3.4989,3.502,3.5022,3.5065,3.5061,3.506,3.506,3.5088,3.5086,3.5172,3.5184,3.5106,3.5107,3.5107,0,3.4794,3.482,3.4845,3.4862,3.4874,3.4901,3.4918,3.4922,3.494,3.4963,3.4983,3.501,3.5032,3.5076,3.5086,3.511,3.5108,3.5136,3.5111,3.5113,3.5111,3.5111,3.5114,3.5142,3.5143,3.5143,3.5144,0,3.4858,3.4862,3.4887,3.4915,3.4936,3.4957,3.4977,3.4991,3.4997,3.5017,3.5046,3.5063,3.5097,3.5124,3.5149,3.5158,3.5153,3.5151,3.5159,3.5162,3.5162,3.5165,3.5075,3.515,3.5149,3.5149,3.5149,3.5148,3.4904,3.4928,3.4949,3.4978,3.4994,3.5013,3.5036,3.5046,3.5071,3.51,3.5099,3.5132,3.515,3.5182,3.5194,3.5218,3.5209,3.522,3.5223,3.5227,3.5231,3.5156,3.5222,3.5222,3.5222,3.5222,3.5222,0,3.497,3.4984,3.5011,3.504,3.5063,3.5056,3.5078,3.5097,3.5126,3.5144,3.5167,3.5201,3.5227,3.5239,3.5265,3.5282,3.5281,3.5289,3.5289,3.5292,3.5236,3.5228,3.5291,3.5291,3.5291,3.5291,3.5291,3.5291,3.5008,3.5048,3.5054,3.5101,3.5114,3.5147,3.5161,3.5178,3.5193,3.5232,3.5254,3.5262,3.5278,3.5305,3.5329,3.5332,3.5342,3.5353,3.5355,3.5303,3.5296,3.5289,3.5282,3.5355,3.5355,3.5409,3.5409,3.541]}]]